When you browse on this site, cookies collect data to enhance your experience and personalize the content and advertising you see.
Visit our Privacy Policy to learn more. By continuing to use the site, you agree to this use of cookies and data.

Previsão horária em Aba-el-Baul

Hoje, 24 Setembro, Quinta-feira

Tempo Temperatura Precipitação Vento Pressão Humidade
00:00 +29°C° 0 mm 2 m/s 748 mmHg 59%
01:00 +29°C° 0 mm 1 m/s 748 mmHg 65%
02:00 +28°C° 0 mm 1 m/s 748 mmHg 70%
03:00 +28°C° 0 mm 1 m/s 748 mmHg 74%
04:00 +28°C° 0 mm 1 m/s 748 mmHg 73%
05:00 +28°C° 0 mm 1 m/s 749 mmHg 71%
06:00 +28°C° 0 mm 1 m/s 749 mmHg 70%
07:00 +31°C° 0 mm 1 m/s 750 mmHg 56%
08:00 +36°C° 0 mm 2 m/s 750 mmHg 42%
09:00 +39°C° 0 mm 2 m/s 750 mmHg 28%
10:00 +42°C° 0 mm 3 m/s 750 mmHg 24%
11:00 +44°C° 0 mm 3 m/s 750 mmHg 21%
12:00 +45°C° 0 mm 4 m/s 750 mmHg 17%
13:00 +46°C° 0 mm 5 m/s 749 mmHg 20%
14:00 +45°C° 0 mm 5 m/s 749 mmHg 23%
15:00 +43°C° 0 mm 5 m/s 748 mmHg 25%
16:00 +41°C° 0 mm 5 m/s 748 mmHg 34%
17:00 +37°C° 0 mm 4 m/s 749 mmHg 42%
18:00 +35°C° 0 mm 3 m/s 749 mmHg 51%
19:00 +34°C° 0 mm 3 m/s 749 mmHg 54%
20:00 +33°C° 0 mm 3 m/s 749 mmHg 58%
21:00 +31°C° 0 mm 2 m/s 750 mmHg 61%
22:00 +31°C° 0 mm 2 m/s 750 mmHg 60%
23:00 +31°C° 0 mm 3 m/s 750 mmHg 59%

Amanhã, 25 Setembro, Sexta-feira

Tempo Temperatura Precipitação Vento Pressão Humidade
00:00 +30°C° 0 mm 3 m/s 749 mmHg 57%
01:00 +30°C° 0 mm 2 m/s 749 mmHg 58%
02:00 +29°C° 0 mm 2 m/s 749 mmHg 58%
03:00 +29°C° 0 mm 2 m/s 749 mmHg 58%
04:00 +29°C° 0 mm 2 m/s 749 mmHg 60%
05:00 +29°C° 0 mm 2 m/s 750 mmHg 62%
06:00 +29°C° 0 mm 1 m/s 750 mmHg 64%
07:00 +32°C° 0 mm 1 m/s 750 mmHg 52%
08:00 +34°C° 0 mm 1 m/s 751 mmHg 41%
09:00 +38°C° 0 mm 2 m/s 751 mmHg 30%
10:00 +40°C° 0 mm 2 m/s 750 mmHg 25%
11:00 +42°C° 0 mm 2 m/s 750 mmHg 20%
12:00 +45°C° 0 mm 2 m/s 750 mmHg 16%
13:00 +45°C° 0 mm 3 m/s 749 mmHg 16%
14:00 +46°C° 0 mm 5 m/s 749 mmHg 17%
15:00 +46°C° 0 mm 6 m/s 748 mmHg 18%
16:00 +42°C° 0 mm 5 m/s 748 mmHg 24%
17:00 +38°C° 0 mm 3 m/s 749 mmHg 29%
18:00 +35°C° 0 mm 2 m/s 749 mmHg 35%
19:00 +34°C° 0 mm 3 m/s 749 mmHg 37%
20:00 +34°C° 0 mm 3 m/s 749 mmHg 40%
21:00 +33°C° 0 mm 3 m/s 750 mmHg 42%
22:00 +30°C° 0 mm 2 m/s 749 mmHg 45%
23:00 +29°C° 0 mm 1 m/s 749 mmHg 47%

Depois de amanhã, 26 Setembro, Sábado

Tempo Temperatura Precipitação Vento Pressão Humidade
00:00 +25°C° 0 mm 0 m/s 749 mmHg 49%
01:00 +27°C° 0 mm 1 m/s 748 mmHg 46%
02:00 +27°C° 0 mm 1 m/s 748 mmHg 44%
03:00 +27°C° 0 mm 1 m/s 748 mmHg 42%
04:00 +28°C° 0 mm 1 m/s 748 mmHg 41%
05:00 +28°C° 0 mm 1 m/s 748 mmHg 40%
06:00 +28°C° 0 mm 1 m/s 749 mmHg 39%
07:00 +32°C° 0 mm 1 m/s 749 mmHg 34%
08:00 +35°C° 0 mm 1 m/s 749 mmHg 28%
09:00 +39°C° 0 mm 1 m/s 750 mmHg 23%
10:00 +40°C° 0 mm 2 m/s 749 mmHg 19%
11:00 +42°C° 0 mm 2 m/s 749 mmHg 16%
12:00 +43°C° 0 mm 2 m/s 749 mmHg 13%
13:00 +45°C° 0 mm 2 m/s 748 mmHg 13%
14:00 +45°C° 0 mm 3 m/s 748 mmHg 13%
15:00 +45°C° 0 mm 3 m/s 747 mmHg 13%
16:00 +42°C° 0 mm 3 m/s 747 mmHg 21%
17:00 +38°C° 0 mm 4 m/s 748 mmHg 29%
18:00 +35°C° 0 mm 4 m/s 748 mmHg 37%
19:00 +33°C° 0 mm 3 m/s 748 mmHg 44%
20:00 +31°C° 0 mm 2 m/s 748 mmHg 50%
21:00 +29°C° 0 mm 1 m/s 749 mmHg 57%
22:00 +29°C° 0 mm 1 m/s 749 mmHg 58%
23:00 +28°C° 0 mm 1 m/s 749 mmHg 60%

27 Setembro, Domingo

Tempo Temperatura Precipitação Vento Pressão Humidade
00:00 +28°C° 0 mm 1 m/s 748 mmHg 61%
01:00 +27°C° 0 mm 1 m/s 748 mmHg 63%
02:00 +25°C° 0 mm 0 m/s 748 mmHg 65%
03:00 +24°C° 0 mm 0 m/s 748 mmHg 67%
04:00 +24°C° 0 mm 0 m/s 748 mmHg 63%
05:00 +27°C° 0 mm 1 m/s 749 mmHg 60%
06:00 +27°C° 0 mm 1 m/s 749 mmHg 56%
07:00 +30°C° 0 mm 1 m/s 750 mmHg 48%
08:00 +33°C° 0 mm 1 m/s 750 mmHg 40%
09:00 +38°C° 0 mm 2 m/s 750 mmHg 31%
10:00 +39°C° 0 mm 2 m/s 750 mmHg 27%
11:00 +41°C° 0 mm 2 m/s 750 mmHg 23%
12:00 +42°C° 0 mm 2 m/s 749 mmHg 18%
13:00 +44°C° 0 mm 3 m/s 749 mmHg 18%
14:00 +44°C° 0 mm 3 m/s 749 mmHg 17%
15:00 +44°C° 0 mm 4 m/s 748 mmHg 17%
16:00 +40°C° 0 mm 3 m/s 748 mmHg 24%
17:00 +37°C° 0 mm 3 m/s 748 mmHg 30%
18:00 +35°C° 0 mm 3 m/s 748 mmHg 37%
19:00 +34°C° 0 mm 3 m/s 749 mmHg 42%
20:00 +32°C° 0 mm 2 m/s 749 mmHg 48%
21:00 +31°C° 0 mm 2 m/s 749 mmHg 53%
22:00 +30°C° 0 mm 2 m/s 749 mmHg 54%
23:00 +30°C° 0 mm 2 m/s 749 mmHg 56%

28 Setembro, Segunda-feira

Tempo Temperatura Precipitação Vento Pressão Humidade
00:00 +29°C° 0 mm 2 m/s 748 mmHg 57%
01:00 +29°C° 0 mm 2 m/s 748 mmHg 55%
02:00 +29°C° 0 mm 2 m/s 748 mmHg 52%
03:00 +29°C° 0 mm 2 m/s 748 mmHg 50%
04:00 +29°C° 0 mm 2 m/s 749 mmHg 49%
05:00 +29°C° 0 mm 2 m/s 749 mmHg 48%
06:00 +29°C° 0 mm 2 m/s 750 mmHg 48%
07:00 +31°C° 0 mm 1 m/s 750 mmHg 41%
08:00 +34°C° 0 mm 1 m/s 751 mmHg 34%
09:00 +35°C° 0 mm 0 m/s 751 mmHg 27%
10:00 +36°C° 0 mm 0 m/s 750 mmHg 24%
11:00 +38°C° 0 mm 0 m/s 750 mmHg 20%
12:00 +39°C° 0 mm 0 m/s 749 mmHg 16%
13:00 +43°C° 0 mm 1 m/s 749 mmHg 16%
14:00 +43°C° 0 mm 2 m/s 749 mmHg 16%
15:00 +44°C° 0 mm 3 m/s 748 mmHg 16%
16:00 +42°C° 0 mm 3 m/s 748 mmHg 22%
17:00 +38°C° 0 mm 2 m/s 748 mmHg 28%
18:00 +35°C° 0 mm 2 m/s 748 mmHg 34%
19:00 +34°C° 0 mm 2 m/s 749 mmHg 37%
20:00 +34°C° 0 mm 3 m/s 749 mmHg 41%
21:00 +34°C° 0 mm 4 m/s 750 mmHg 44%
22:00 +33°C° 0 mm 3 m/s 750 mmHg 47%
23:00 +31°C° 0 mm 3 m/s 749 mmHg 50%

29 Setembro, Terça-feira

Tempo Temperatura Precipitação Vento Pressão Humidade
00:00 +30°C° 0 mm 2 m/s 749 mmHg 53%
01:00 +30°C° 0 mm 2 m/s 749 mmHg 55%
02:00 +29°C° 0 mm 1 m/s 749 mmHg 57%
03:00 +28°C° 0 mm 1 m/s 749 mmHg 60%
04:00 +28°C° 0 mm 1 m/s 749 mmHg 58%
05:00 +29°C° 0 mm 1 m/s 750 mmHg 57%
06:00 +29°C° 0 mm 1 m/s 750 mmHg 56%
07:00 +31°C° 0 mm 1 m/s 750 mmHg 49%
08:00 +35°C° 0 mm 2 m/s 751 mmHg 42%
09:00 +38°C° 0 mm 3 m/s 751 mmHg 34%
10:00 +40°C° 0 mm 3 m/s 750 mmHg 29%
11:00 +41°C° 0 mm 2 m/s 750 mmHg 24%
12:00 +43°C° 0 mm 2 m/s 749 mmHg 20%
13:00 +44°C° 0 mm 3 m/s 749 mmHg 18%
14:00 +44°C° 0 mm 3 m/s 748 mmHg 17%
15:00 +44°C° 0 mm 4 m/s 748 mmHg 16%
16:00 +41°C° 0 mm 4 m/s 748 mmHg 24%
17:00 +38°C° 0 mm 4 m/s 748 mmHg 32%
18:00 +35°C° 0 mm 5 m/s 748 mmHg 39%
19:00 +34°C° 0 mm 4 m/s 748 mmHg 46%
20:00 +34°C° 0 mm 4 m/s 748 mmHg 53%
21:00 +33°C° 0 mm 4 m/s 749 mmHg 60%
22:00 +33°C° 0 mm 4 m/s 748 mmHg 61%
23:00 +33°C° 0 mm 4 m/s 748 mmHg 62%
Mostrar mais